Location: Lobstick
(53.6000°N, 115.1667°W)
Time: 10:51:04
(UTC+00:00)

Gurwin Techsat 1B - Pass Details

Date: 04 December 2023
Orbit: 810 x 813 km, 98.9° (Epoch: 21 February)

Event Time Altitude Azimuth Distance (km) Brightness Sun altitude
Rises 13:40:52 0° 8° (N) 3,351 11.7 -16.3°
Reaches altitude 10° 13:44:42 10° 340° (NNW) 2,415 10.7 -15.8°
Enters shadow 13:45:10 11° 335° (NNW) 2,352 10.6 -15.7°
